Weather in Pilar

Argentina     34°27′35″S   58°54′34″W
temp.,
°C
wind,
m/s
gust,
m/s
humid.,
%
clouds,
%
prec.,
mm/h
press.,
hPa
HPBL,
m
18 august, thu
thu1800:00+5w46490 0.0 101695
03:00+3wsw412530 0.0 1017223
06:00+2sw411665 0.0 1019264
09:00+5sw613620 0.0 1022553
12:00+10ssw79465 0.0 10241423
15:00+12sw79320 0.0 10241997
18:00+10sw59410 0.0 1026263
21:00+5wsw34490 0.0 102858
19 august, fri
fri1900:00+3wsw33520 0.0 102929
03:00+3wnw22530 0.0 102920
06:00+2nw34520 0.0 102944
09:00+5nw47450 0.0 1031189
12:00+13nw57290 0.0 1031956
15:00+16nw56260 0.0 10281380
18:00+12nw22410 0.0 102818
21:00+7n33390 0.0 102925
20 august, sat
sat2000:00+5n48515 0.0 1029134
03:00+4n4106295 0.0 1029161
06:00+3n39682 0.0 1029149
09:00+6n496130 0.0 1030239
12:00+14n68389 0.0 1029816
15:00+17nnw57300 0.0 10261231
18:00+13n34440 0.0 102641
21:00+9nne45505 0.0 102765
21 august, sun
sun2100:00+6n36685 0.0 102892
03:00+5n378128 0.0 1028100
06:00+5nnw2286100 0.0 102818
09:00+8nnw2272100 0.0 1029109
12:00+14nw2248100 0.0 1028584
15:00+17sw1139100 0.0 10261002
18:00+14e1151100 0.0 102510
21:00+10ene2256100 0.0 102610
22 august, mon
mon2200:00+9ne1159100 0.0 102510
03:00+8nne116198 0.0 102510
06:00+7ene1165100 0.0 102410
09:00+10ne126612 0.0 1025110
12:00+16ene33455 0.0 1024886
15:00+18e333721 0.0 10211331
18:00+14e4650100 0.0 1020106
21:00+10e346844 0.0 102159